When you browse on this site, cookies collect data to enhance your experience and personalize the content and advertising you see.
Visit our Privacy Policy to learn more. By continuing to use the site, you agree to this use of cookies and data.
  • In Österreich
  • Länderverzeichnis
  • Für 7 Tage
  • Wassertemperatur
  • Wetterkarte
  • News
  • Widgets
  • user-avatar
    Anmelden

    Stündliche Wetter Luanda

    Heute, 20 August, Dienstag

    Zeit Temperatur Niederschläge Wind Luftdruck Luftfeuchtigkeit
    00:00 +21°C° 0 mm 2 m/S 755 mmHg 88%
    01:00 +21°C° 0 mm 1 m/S 755 mmHg 89%
    02:00 +21°C° 0 mm 1 m/S 755 mmHg 90%
    03:00 +21°C° 0 mm 1 m/S 755 mmHg 92%
    04:00 +21°C° 0 mm 1 m/S 755 mmHg 93%
    05:00 +21°C° 0 mm 1 m/S 755 mmHg 91%
    06:00 +21°C° 0 mm 1 m/S 755 mmHg 89%
    07:00 +20°C° 0 mm 2 m/S 756 mmHg 87%
    08:00 +23°C° 0 mm 1 m/S 756 mmHg 78%
    09:00 +25°C° 0 mm 1 m/S 756 mmHg 69%
    10:00 +27°C° 0 mm 1 m/S 756 mmHg 61%
    11:00 +28°C° 0 mm 2 m/S 755 mmHg 56%
    12:00 +30°C° 0 mm 3 m/S 754 mmHg 52%
    13:00 +31°C° 0 mm 3 m/S 753 mmHg 47%
    14:00 +30°C° 0 mm 4 m/S 753 mmHg 50%
    15:00 +29°C° 0 mm 5 m/S 753 mmHg 54%
    16:00 +28°C° 0 mm 6 m/S 752 mmHg 57%
    17:00 +27°C° 0 mm 6 m/S 753 mmHg 64%
    18:00 +24°C° 0 mm 6 m/S 753 mmHg 71%
    19:00 +23°C° 0 mm 5 m/S 754 mmHg 77%
    20:00 +22°C° 0 mm 4 m/S 754 mmHg 80%
    21:00 +22°C° 0 mm 3 m/S 755 mmHg 83%
    22:00 +23°C° 0 mm 2 m/S 756 mmHg 85%
    23:00 +21°C° 0 mm 2 m/S 756 mmHg 86%

    Morgen, 21 August, Mittwoch

    Zeit Temperatur Niederschläge Wind Luftdruck Luftfeuchtigkeit
    00:00 +21°C° 0 mm 2 m/S 756 mmHg 87%
    01:00 +21°C° 0 mm 2 m/S 756 mmHg 88%
    02:00 +21°C° 0 mm 2 m/S 756 mmHg 86%
    03:00 +21°C° 0 mm 2 m/S 755 mmHg 84%
    04:00 +23°C° 0 mm 2 m/S 755 mmHg 82%
    05:00 +21°C° 0 mm 3 m/S 756 mmHg 83%
    06:00 +21°C° 0 mm 3 m/S 756 mmHg 84%
    07:00 +21°C° 0 mm 3 m/S 756 mmHg 85%
    08:00 +24°C° 0 mm 2 m/S 756 mmHg 74%
    09:00 +26°C° 0 mm 2 m/S 756 mmHg 63%
    10:00 +29°C° 0 mm 1 m/S 756 mmHg 52%
    11:00 +30°C° 0 mm 2 m/S 756 mmHg 50%
    12:00 +30°C° 0 mm 3 m/S 755 mmHg 48%
    13:00 +32°C° 0 mm 5 m/S 754 mmHg 46%
    14:00 +30°C° 0 mm 5 m/S 753 mmHg 50%
    15:00 +29°C° 0 mm 6 m/S 753 mmHg 54%
    16:00 +28°C° 0 mm 6 m/S 752 mmHg 58%
    17:00 +26°C° 0 mm 6 m/S 753 mmHg 66%
    18:00 +24°C° 0 mm 6 m/S 753 mmHg 73%
    19:00 +22°C° 0 mm 6 m/S 754 mmHg 80%
    20:00 +22°C° 0 mm 4 m/S 755 mmHg 82%
    21:00 +22°C° 0 mm 3 m/S 755 mmHg 84%
    22:00 +23°C° 0 mm 1 m/S 756 mmHg 86%
    23:00 +23°C° 0 mm 1 m/S 756 mmHg 85%

    übermorgen, 22 August, Donnerstag

    Zeit Temperatur Niederschläge Wind Luftdruck Luftfeuchtigkeit
    00:00 +23°C° 0 mm 1 m/S 756 mmHg 85%
    01:00 +23°C° 0 mm 1 m/S 756 mmHg 84%
    02:00 +23°C° 0 mm 1 m/S 756 mmHg 81%
    03:00 +23°C° 0 mm 1 m/S 756 mmHg 78%
    04:00 +24°C° 0 mm 1 m/S 756 mmHg 74%
    05:00 +24°C° 0 mm 1 m/S 756 mmHg 73%
    06:00 +24°C° 0 mm 1 m/S 756 mmHg 71%
    07:00 +24°C° 0 mm 1 m/S 756 mmHg 70%
    08:00 +25°C° 0 mm 1 m/S 757 mmHg 64%
    09:00 +26°C° 0 mm 1 m/S 757 mmHg 59%
    10:00 +28°C° 0 mm 1 m/S 757 mmHg 53%
    11:00 +29°C° 0 mm 2 m/S 756 mmHg 50%
    12:00 +30°C° 0 mm 3 m/S 755 mmHg 47%
    13:00 +32°C° 0 mm 4 m/S 754 mmHg 44%
    14:00 +29°C° 0 mm 4 m/S 754 mmHg 49%
    15:00 +28°C° 0 mm 5 m/S 753 mmHg 53%
    16:00 +27°C° 0 mm 6 m/S 753 mmHg 57%
    17:00 +26°C° 0 mm 5 m/S 753 mmHg 64%
    18:00 +25°C° 0 mm 5 m/S 754 mmHg 70%
    19:00 +23°C° 0 mm 5 m/S 754 mmHg 76%
    20:00 +22°C° 0 mm 4 m/S 755 mmHg 79%
    21:00 +22°C° 0 mm 3 m/S 755 mmHg 82%
    22:00 +21°C° 0 mm 2 m/S 756 mmHg 84%
    23:00 +21°C° 0 mm 2 m/S 756 mmHg 85%

    23 August, Freitag

    Zeit Temperatur Niederschläge Wind Luftdruck Luftfeuchtigkeit
    00:00 +21°C° 0 mm 2 m/S 756 mmHg 86%
    01:00 +21°C° 0 mm 2 m/S 756 mmHg 86%
    02:00 +21°C° 0 mm 2 m/S 756 mmHg 84%
    03:00 +21°C° 0 mm 2 m/S 756 mmHg 82%
    04:00 +21°C° 0 mm 2 m/S 756 mmHg 80%
    05:00 +21°C° 0 mm 2 m/S 756 mmHg 78%
    06:00 +23°C° 0 mm 2 m/S 757 mmHg 75%
    07:00 +23°C° 0 mm 1 m/S 757 mmHg 73%
    08:00 +25°C° 0 mm 1 m/S 757 mmHg 65%
    09:00 +26°C° 0 mm 1 m/S 757 mmHg 58%
    10:00 +28°C° 0 mm 1 m/S 757 mmHg 50%
    11:00 +29°C° 0 mm 2 m/S 756 mmHg 48%
    12:00 +30°C° 0 mm 3 m/S 755 mmHg 45%
    13:00 +32°C° 0 mm 4 m/S 754 mmHg 42%
    14:00 +30°C° 0 mm 5 m/S 754 mmHg 47%
    15:00 +28°C° 0 mm 5 m/S 753 mmHg 52%
    16:00 +27°C° 0 mm 6 m/S 753 mmHg 57%
    17:00 +26°C° 0 mm 6 m/S 753 mmHg 64%
    18:00 +24°C° 0 mm 6 m/S 754 mmHg 71%
    19:00 +22°C° 0 mm 5 m/S 754 mmHg 78%
    20:00 +22°C° 0 mm 4 m/S 755 mmHg 79%
    21:00 +23°C° 0 mm 2 m/S 756 mmHg 81%
    22:00 +23°C° 0 mm 1 m/S 756 mmHg 82%
    23:00 +22°C° 0 mm 1 m/S 756 mmHg 84%

    24 August, Samstag

    Zeit Temperatur Niederschläge Wind Luftdruck Luftfeuchtigkeit
    00:00 +22°C° 0 mm 1 m/S 757 mmHg 85%
    01:00 +20°C° 0 mm 0 m/S 757 mmHg 87%
    02:00 +22°C° 0 mm 1 m/S 757 mmHg 85%
    03:00 +22°C° 0 mm 1 m/S 756 mmHg 83%
    04:00 +21°C° 0 mm 2 m/S 756 mmHg 81%
    05:00 +23°C° 0 mm 2 m/S 757 mmHg 78%
    06:00 +23°C° 0 mm 2 m/S 757 mmHg 75%
    07:00 +23°C° 0 mm 2 m/S 757 mmHg 73%
    08:00 +24°C° 0 mm 1 m/S 757 mmHg 68%
    09:00 +25°C° 0 mm 1 m/S 758 mmHg 64%
    10:00 +24°C° 0 mm 0 m/S 758 mmHg 59%
    11:00 +27°C° 0 mm 1 m/S 757 mmHg 55%
    12:00 +28°C° 0 mm 3 m/S 756 mmHg 50%
    13:00 +30°C° 0 mm 4 m/S 755 mmHg 46%
    14:00 +29°C° 0 mm 4 m/S 755 mmHg 49%
    15:00 +28°C° 0 mm 5 m/S 754 mmHg 52%
    16:00 +27°C° 0 mm 5 m/S 753 mmHg 55%
    17:00 +26°C° 0 mm 5 m/S 754 mmHg 62%
    18:00 +23°C° 0 mm 5 m/S 755 mmHg 68%
    19:00 +22°C° 0 mm 5 m/S 755 mmHg 75%
    20:00 +22°C° 0 mm 4 m/S 756 mmHg 78%
    21:00 +21°C° 0 mm 2 m/S 756 mmHg 80%
    22:00 +22°C° 0 mm 1 m/S 756 mmHg 83%
    23:00 +21°C° 0 mm 1 m/S 756 mmHg 84%

    25 August, Sonntag

    Zeit Temperatur Niederschläge Wind Luftdruck Luftfeuchtigkeit
    00:00 +21°C° 0 mm 1 m/S 756 mmHg 85%
    01:00 +21°C° 0 mm 1 m/S 756 mmHg 86%
    02:00 +20°C° 0 mm 1 m/S 756 mmHg 88%
    03:00 +20°C° 0 mm 1 m/S 756 mmHg 89%
    04:00 +20°C° 0 mm 1 m/S 756 mmHg 91%
    05:00 +20°C° 0 mm 1 m/S 756 mmHg 89%
    06:00 +20°C° 0 mm 1 m/S 756 mmHg 86%
    07:00 +21°C° 0 mm 1 m/S 757 mmHg 84%
    08:00 +23°C° 0 mm 2 m/S 757 mmHg 74%
    09:00 +25°C° 0 mm 2 m/S 757 mmHg 63%
    10:00 +27°C° 0 mm 2 m/S 757 mmHg 53%
    11:00 +28°C° 0 mm 3 m/S 756 mmHg 52%
    12:00 +28°C° 0 mm 4 m/S 755 mmHg 50%
    13:00 +29°C° 0 mm 5 m/S 755 mmHg 49%
    14:00 +28°C° 0 mm 5 m/S 754 mmHg 52%
    15:00 +27°C° 0 mm 5 m/S 754 mmHg 56%
    16:00 +26°C° 0 mm 6 m/S 753 mmHg 59%
    17:00 +25°C° 0 mm 5 m/S 754 mmHg 66%
    18:00 +23°C° 0 mm 5 m/S 754 mmHg 73%
    19:00 +21°C° 0 mm 5 m/S 755 mmHg 81%
    20:00 +21°C° 0 mm 4 m/S 755 mmHg 84%
    21:00 +21°C° 0 mm 3 m/S 756 mmHg 87%
    22:00 +20°C° 0 mm 2 m/S 756 mmHg 90%
    23:00 +20°C° 0 mm 2 m/S 756 mmHg 90%
    Mehr zeigen